Weather in Talyanki

Ukraine / Cherkassi District     48°48′33″N   30°33′03″E
temp.,
°C
wind,
m/s
gust,
m/s
humid.,
%
clouds,
%
prec.,
mm/h
press.,
hPa
HPBL,
m
23 april, fri
fri2300:00+9s5138069 0.0 1016348
03:00+8s3789100 0.4 1016196
06:00+7ssw369388 1.1 1015172
09:00+10nnw4485100 1.1 1016590
12:00+8nnw6683100 0.1 1018698
15:00+5nnw5887100 0.4 1019638
18:00+8nnw4670100 1.6 10181019
21:00+6w22760 1.6 101928
24 april, sat
sat2400:00+4w48805 0.0 1019164
03:00+3wnw512830 0.0 1019295
06:00+2w411850 0.0 1020254
09:00+6wnw69645 0.0 1021963
12:00+7wnw6104996 0.0 10221999
15:00+9wnw71137100 0.0 10212810
18:00+8wnw684934 0.0 10221791
21:00+5nw22645 0.0 102329
25 april, sun
sun2500:00+4wsw22685 0.0 102314
03:00+3ssw337052 0.0 102234
06:00+2ssw367380 0.0 1021112
09:00+7sw586599 0.0 1020584
12:00+8wsw4879100 0.3 1019960
15:00+7nw6787100 0.5 1018569
18:00+6nnw478465 0.3 1018599
21:00+4nnw228032 0.3 101924
26 april, mon
mon2600:00+4nnw227356 0.0 101926
03:00+2nw227743 0.0 101920
06:00+1nw337791 0.0 101955
09:00+5nw45564 0.0 1019696
12:00+8wnw4640100 0.0 10182410
15:00+10w6840100 0.0 10172416
18:00+9wnw594463 0.0 10162492
21:00+5nnw36641 0.0 1017132
27 april, tue
tue2700:00+3wnw226989 0.0 101733
03:00+2nnw2267100 0.0 101622
06:00+3w1167100 0.1 101617
09:00+6wsw225967 0.1 1017655
12:00+9w3545100 0.1 10162145
15:00+11wnw5739100 0.1 10152398
18:00+10nw464130 0.0 10161935
21:00+7nne11585 0.0 101710